Theta_e
323 327 326 328 329 326 324 324 322 323 324 325 322 322 335 343 323 321 350 356 334 336 347 345 344 344 344 347 346 345 346 346 348 349 350 352 350 349 351 352 352 352 350 351 352 347 344 344 347 349 351 353 355 354 353 353 352 349 347 346 344 344 342 339 339 339 334 333 339 339 337 337 338 338 337 335 332 332 333 335 335 335 334 331 330 330 331
323 323 324 326 325 324 324 324 326 324 325 325 322 327 339 338 330 337 352 350 342 340 340 340 342 342 343 345 344 344 346 348 351 352 352 352 350 349 352 353 353 352 351 349 351 349 347 345 347 349 351 353 353 353 353 352 350 348 347 345 344 342 339 337 338 337 333 334 339 338 337 338 337 337 338 334 329 331 334 335 336 336 334 331 331 331 331
320 321 325 325 323 324 322 321 326 325 324 325 323 329 336 333 334 344 345 342 343 341 340 343 343 346 349 347 345 346 347 348 350 351 351 351 351 352 353 355 354 352 351 350 350 351 347 345 348 349 351 352 352 352 352 350 349 347 345 345 343 340 338 336 338 337 334 336 339 337 336 337 337 338 339 333 329 332 335 335 335 337 334 332 332 332 331
316 320 323 323 325 324 319 320 326 324 325 328 327 334 340 334 338 345 338 334 338 342 349 349 345 346 346 343 345 345 344 346 347 349 351 353 356 357 355 356 356 355 354 354 354 352 346 344 348 350 352 352 350 351 351 349 349 346 344 344 342 338 337 336 338 336 331 334 339 338 336 339 337 336 337 336 335 335 336 335 336 336 333 332 332 332 332
317 323 323 324 323 317 318 331 338 332 334 336 334 343 348 345 350 349 337 334 341 349 352 347 343 345 342 341 344 343 342 346 346 347 352 357 361 362 361 360 359 359 360 357 352 347 344 345 347 349 352 352 350 351 350 348 347 344 343 343 340 336 335 336 338 334 329 333 338 338 339 339 333 329 333 338 338 336 336 336 336 336 334 332 332 331 332
317 326 326 323 319 315 326 348 348 335 337 340 340 343 344 346 353 353 344 343 350 353 349 346 347 347 344 345 345 342 343 348 349 351 357 362 365 365 367 368 366 366 368 360 350 347 347 347 347 350 352 351 351 350 349 348 345 343 342 341 338 336 335 335 336 333 332 335 338 339 339 336 330 327 332 338 338 335 335 336 337 336 334 332 332 332 333
324 330 325 317 316 324 343 354 344 337 336 339 343 343 343 344 350 356 355 348 347 348 345 346 350 350 351 354 354 352 350 348 354 361 365 371 372 371 374 379 380 382 377 361 348 348 351 350 349 350 351 351 350 348 347 347 344 342 341 339 338 337 336 336 334 333 335 338 339 339 337 332 330 331 333 336 337 336 337 336 337 336 334 332 333 332 333
325 324 319 315 320 335 350 347 340 342 340 337 340 338 338 343 344 350 353 345 342 343 340 340 345 348 352 352 352 356 355 351 358 366 370 372 370 371 379 386 388 383 370 356 349 349 351 352 352 351 351 350 349 347 346 345 344 342 341 339 339 338 337 337 335 333 336 339 340 339 335 331 332 333 334 335 336 337 337 337 336 335 333 333 333 332 333
334 331 321 324 330 334 344 345 340 340 338 337 340 336 335 342 344 345 348 343 342 345 341 340 340 340 345 344 339 343 348 351 356 360 359 363 369 371 366 359 357 352 345 343 343 347 351 353 353 352 350 349 347 345 344 344 343 342 341 339 339 338 338 338 336 335 336 339 340 338 335 333 332 331 333 335 337 337 337 337 336 335 334 333 333 333 334
342 337 325 329 332 328 337 349 346 339 334 336 344 340 336 341 344 344 345 342 343 345 343 342 340 338 342 342 340 349 356 355 357 356 350 349 357 356 344 337 337 339 342 347 348 349 352 352 352 351 349 347 346 344 342 342 342 341 340 339 339 339 338 337 338 337 337 339 339 338 337 336 333 331 334 336 337 337 337 337 336 334 334 333 333 334 335
342 341 331 332 332 332 342 350 346 340 336 338 342 336 333 341 345 344 347 346 343 343 342 341 342 342 343 344 350 364 365 355 351 353 351 350 352 344 338 339 343 343 347 351 352 351 351 349 349 349 347 345 344 342 341 342 341 340 340 340 339 338 337 337 337 338 338 339 339 337 336 334 332 333 334 336 336 336 337 336 335 334 334 334 335 336 336
346 346 337 331 333 340 348 347 342 339 338 342 339 329 330 344 348 345 349 352 348 347 346 346 345 345 347 349 350 354 357 357 357 359 361 367 370 360 352 353 353 350 351 353 351 350 349 348 348 346 345 344 342 341 341 341 340 341 340 340 339 337 336 337 338 338 339 340 338 335 333 332 331 332 333 335 336 336 336 336 335 335 336 336 336 337 335
345 343 334 329 336 349 349 342 339 337 340 345 339 331 337 348 347 344 345 347 346 346 347 347 346 345 346 347 347 349 357 365 364 360 357 359 363 360 356 356 357 354 352 351 349 349 349 348 346 345 344 343 341 341 341 340 340 341 340 340 339 337 336 337 338 338 339 338 335 333 331 332 333 333 335 336 337 336 336 336 336 336 337 336 336 335 333
344 346 340 331 338 349 341 337 340 341 342 344 339 339 347 346 343 345 345 343 344 346 347 350 350 348 347 350 354 357 360 362 363 363 364 363 363 360 356 356 355 352 349 347 346 347 347 346 345 344 344 342 340 340 340 339 339 340 339 339 338 336 336 337 337 338 338 336 335 334 334 335 335 337 338 337 338 337 338 338 337 337 336 335 333 332 331
343 350 342 329 336 345 337 341 355 353 346 346 343 345 347 343 341 345 345 345 347 347 347 351 352 353 356 359 363 364 366 367 368 371 375 374 368 361 355 354 353 350 347 344 343 343 344 343 342 342 341 340 339 338 337 337 338 338 338 339 337 336 337 336 337 337 336 335 335 335 336 338 337 338 339 338 338 338 337 337 337 335 335 333 331 330 329
346 350 341 334 344 347 337 343 358 350 342 345 346 343 341 339 341 343 343 346 348 348 350 352 351 354 358 360 363 367 372 375 376 378 379 372 360 353 351 353 353 349 345 342 341 341 340 339 339 340 340 339 337 336 335 335 337 337 337 336 335 336 337 336 336 337 336 336 336 338 339 339 339 339 339 338 338 337 336 336 335 334 333 332 330 328 328
345 347 347 347 351 346 337 337 342 338 336 338 337 335 336 336 337 337 337 339 343 346 349 348 347 352 356 358 362 368 373 379 382 380 373 360 351 348 346 347 349 348 344 342 339 337 337 336 337 337 338 338 336 335 334 334 335 336 335 335 335 336 336 335 336 338 339 338 338 339 339 340 340 340 338 338 337 336 335 335 334 333 332 330 328 328 328
343 342 345 346 345 341 336 333 333 332 333 333 331 331 333 333 333 334 333 334 337 342 346 348 349 352 355 359 361 362 366 372 375 375 366 351 342 342 344 344 346 346 343 340 338 337 336 335 336 336 336 337 336 335 334 335 335 335 334 334 334 334 334 334 335 337 339 339 338 340 341 341 341 340 338 337 336 335 334 333 332 331 330 329 328 329 328
344 344 343 345 344 341 337 334 333 332 331 330 331 332 332 331 331 331 331 332 334 338 342 349 352 353 355 358 359 359 364 367 366 372 374 359 343 341 344 345 344 344 342 339 338 337 336 336 336 335 335 335 336 335 335 336 335 335 334 333 333 333 334 334 335 337 338 337 338 340 341 340 340 339 337 336 335 334 333 332 331 331 330 329 329 329 329
349 347 345 346 344 341 340 336 335 334 332 330 330 331 332 334 333 332 332 334 333 333 337 343 345 347 350 355 359 362 367 369 368 372 372 359 345 342 344 344 344 343 341 339 338 337 337 336 335 335 334 335 335 336 337 338 337 335 333 333 334 334 334 335 336 337 337 337 338 339 338 338 337 336 336 335 334 333 332 332 332 330 330 329 328 328 329
349 342 341 343 340 338 339 338 336 333 330 330 331 331 330 333 336 336 337 337 335 334 335 337 339 342 343 346 353 358 362 368 373 370 357 345 340 341 343 343 343 342 341 340 339 338 337 336 335 335 334 334 335 336 338 340 340 337 335 335 335 335 335 336 336 337 337 337 338 338 337 336 334 333 332 332 332 331 331 331 331 330 329 329 328 328 328
346 343 341 340 339 339 338 335 334 331 328 328 331 331 330 332 332 330 331 330 330 330 331 331 334 337 335 335 341 350 356 364 366 359 345 337 337 340 341 341 341 341 340 340 339 338 337 337 336 336 336 335 336 338 339 341 342 340 339 339 338 337 336 335 335 336 337 337 337 337 336 334 333 331 330 330 330 329 329 329 329 329 329 328 327 326 325
342 344 343 338 337 337 334 331 331 330 327 326 328 328 329 330 328 326 325 326 325 326 326 325 326 330 331 331 335 344 351 351 348 344 341 338 338 339 339 339 340 339 339 340 339 337 338 338 337 337 338 338 339 339 340 341 342 340 339 338 338 338 337 335 335 336 336 336 335 335 334 333 332 330 328 328 327 327 327 327 327 327 327 326 324 324 323
337 337 337 334 331 329 328 328 329 330 328 327 327 327 327 326 325 325 325 325 325 325 325 324 324 327 329 328 331 339 345 342 338 338 340 340 340 339 339 339 338 338 338 339 338 338 338 338 338 339 339 339 340 340 341 340 338 337 335 333 335 337 337 336 336 336 335 335 334 333 331 330 329 329 328 325 323 322 323 324 324 324 323 323 322 322 321
333 330 328 326 326 326 326 326 327 327 328 328 328 329 329 327 326 325 324 325 325 324 325 326 324 324 327 327 328 333 338 339 338 340 342 341 340 340 340 338 337 338 339 338 338 339 339 339 339 339 340 340 340 340 340 338 335 335 334 330 332 336 338 337 336 336 336 335 333 332 331 330 329 328 328 325 323 320 319 320 320 320 320 320 320 320 320
327 325 323 323 324 325 326 325 325 325 325 325 326 328 330 329 327 324 322 323 323 321 324 329 327 323 324 325 325 326 330 334 337 341 342 341 339 339 340 340 338 338 338 338 337 338 338 338 337 338 339 339 339 338 337 335 332 333 333 332 333 338 339 339 339 337 336 336 335 333 332 331 330 328 327 325 324 321 318 317 317 317 317 318 318 318 317
325 324 325 325 324 324 325 325 323 322 322 323 324 324 324 323 323 321 320 321 321 320 321 324 324 322 322 321 321 323 324 326 328 332 336 338 339 340 340 341 340 338 337 337 336 334 334 334 334 336 337 336 337 336 333 332 332 333 336 337 339 341 341 342 341 339 338 338 336 334 331 330 329 328 326 324 323 322 320 318 317 316 316 315 315 315 314
324 324 324 324 325 324 323 322 321 321 321 322 321 321 320 319 320 321 322 322 322 322 321 320 321 322 323 321 320 321 323 322 324 325 326 329 334 337 339 341 342 339 337 338 337 334 333 331 332 333 334 334 335 336 335 335 337 339 339 339 339 339 339 341 341 340 338 337 335 334 331 330 328 327 324 322 321 321 320 320 318 317 315 314 313 312 312
322 322 322 323 323 323 322 322 323 323 322 322 320 320 320 321 322 323 323 322 323 324 323 320 319 320 321 320 320 321 323 323 323 322 322 324 330 335 338 340 342 340 337 337 337 335 334 333 331 331 332 334 336 336 336 337 338 338 337 337 335 335 335 337 337 337 336 335 334 333 330 328 326 324 323 322 321 320 319 319 318 316 314 313 312 312 311
321 321 321 322 322 322 324 325 325 324 324 324 323 323 323 323 325 324 323 322 324 325 323 320 319 319 319 319 319 320 321 321 321 320 322 326 331 335 336 338 339 338 335 335 335 335 334 333 331 331 332 334 334 332 332 333 334 334 334 333 334 333 333 332 332 332 332 332 332 331 329 327 326 324 323 322 321 319 319 318 317 315 314 313 312 312 311
322 322 323 324 325 325 327 328 328 327 327 327 326 325 325 325 326 326 325 325 325 325 324 323 323 322 320 319 320 320 321 321 321 321 323 326 331 333 335 337 338 337 335 333 333 333 332 330 329 330 331 331 331 331 332 331 330 330 331 332 333 332 331 330 330 329 329 331 331 330 329 328 326 325 324 323 321 320 319 318 317 315 313 312 312 312 312
323 323 325 327 328 329 329 330 329 328 329 328 326 325 325 325 324 324 325 325 324 324 325 325 325 323 321 320 321 321 321 322 322 323 324 326 328 331 334 335 336 337 335 334 333 333 332 329 329 330 331 331 331 331 330 328 327 327 328 330 331 331 330 330 330 329 329 329 330 329 329 328 327 327 326 324 322 321 320 319 318 316 314 314 314 314 314
323 324 323 324 325 325 326 327 327 326 327 328 327 326 327 327 325 325 325 324 323 324 325 324 322 322 322 322 322 321 321 323 324 324 325 326 327 329 332 333 333 333 333 333 332 332 331 329 329 329 330 329 329 330 329 328 327 327 327 328 330 330 330 330 330 329 329 329 328 328 327 327 327 327 327 325 323 322 322 321 320 317 316 316 315 315 316
323 323 322 322 323 322 322 324 325 326 327 327 326 328 328 325 324 325 327 325 324 324 324 321 321 323 324 323 322 321 322 325 327 327 326 326 328 329 330 330 330 331 331 331 330 330 329 329 328 328 328 328 328 330 330 330 329 329 328 329 330 330 330 330 329 329 328 328 328 327 327 326 327 327 327 326 325 324 323 322 321 319 317 316 316 316 316
322 322 322 323 323 322 323 324 325 325 325 325 325 326 325 321 320 323 326 324 323 323 321 320 322 325 324 323 322 321 321 324 326 326 326 327 328 329 328 328 328 328 329 328 328 329 329 329 328 328 328 328 328 329 330 330 330 330 329 330 330 331 330 329 328 328 328 328 327 327 327 326 326 326 326 326 325 324 323 321 320 319 318 317 317 317 315
321 323 325 324 323 322 324 324 323 323 324 324 324 325 324 321 319 321 323 322 321 320 321 321 324 324 324 323 322 322 321 322 323 325 327 328 327 327 328 327 326 326 326 326 326 327 327 328 328 328 329 329 329 330 330 330 331 330 330 331 330 329 328 328 328 328 328 327 327 327 327 326 325 324 324 323 322 322 321 321 320 319 318 318 318 316 312
320 322 325 324 321 320 321 320 319 320 322 322 321 322 323 321 320 321 321 321 321 322 322 323 324 324 323 323 323 322 322 323 323 325 327 327 326 326 327 326 326 325 325 326 327 327 327 327 328 329 328 327 327 327 329 329 330 330 330 330 329 327 326 327 327 327 327 327 327 327 326 324 323 323 322 322 321 321 320 319 319 318 317 317 317 314 310
319 320 321 321 319 318 319 319 319 320 321 321 321 320 321 321 321 321 321 322 322 323 324 324 325 324 323 323 323 322 322 323 324 325 326 325 325 324 324 324 324 324 324 325 326 327 328 328 328 327 326 325 325 326 327 328 328 327 327 327 327 326 326 325 326 326 326 325 325 325 325 323 321 321 320 321 320 320 319 318 318 317 316 315 314 311 309
323 321 320 319 319 319 319 320 321 320 321 322 321 320 321 322 322 322 322 322 322 323 324 324 324 323 322 322 323 322 322 323 324 325 325 325 324 324 323 323 324 324 324 324 325 327 327 326 324 324 324 325 325 325 325 324 324 324 324 325 325 325 324 324 324 325 325 324 324 323 323 322 321 320 319 319 319 318 318 318 317 317 316 314 312 311 309
327 325 321 320 321 320 319 319 320 320 320 321 320 320 321 322 322 322 322 322 322 323 324 323 323 322 322 322 322 322 322 323 323 323 323 323 323 323 323 323 323 324 325 325 326 327 326 324 322 322 323 325 324 323 322 322 323 323 324 325 325 325 324 324 324 324 324 324 323 322 322 321 321 320 320 319 318 318 318 318 317 317 316 315 313 311 310
325 322 319 319 320 319 319 319 319 320 320 321 321 321 322 322 322 321 321 321 322 323 323 323 323 323 323 323 322 322 323 323 322 322 322 321 320 320 322 322 323 325 325 325 325 325 324 323 323 323 323 323 324 323 321 321 322 322 323 324 324 324 323 324 323 323 323 323 322 322 321 321 320 320 320 320 319 318 317 317 316 316 316 315 313 313 312
323 321 321 321 320 319 320 320 319 320 320 321 322 322 322 322 322 322 321 321 322 323 323 322 323 323 323 323 323 323 323 322 322 322 321 320 319 320 322 322 322 323 324 324 323 323 323 322 323 323 323 323 323 322 320 319 318 318 319 320 321 322 323 323 322 322 322 322 321 321 321 320 320 319 319 319 319 317 317 316 315 315 314 314 314 313 312
321 321 322 322 320 321 322 321 320 320 321 322 322 322 322 322 322 322 322 321 321 322 323 322 322 322 322 322 322 323 322 322 322 321 321 321 320 320 321 322 322 322 322 321 321 321 321 321 321 321 320 319 318 318 316 314 313 313 314 315 316 318 319 318 318 318 318 317 317 317 318 318 318 319 319 318 318 317 316 316 315 314 313 313 313 312 312
319 319 320 320 321 322 322 321 321 321 321 321 322 323 322 322 322 322 322 322 323 323 323 321 321 323 323 322 322 322 322 321 322 321 321 322 323 322 322 322 321 322 322 322 320 320 321 320 319 319 319 317 315 314 314 312 312 311 311 311 312 312 312 312 311 312 311 310 310 310 310 311 312 314 316 317 317 316 316 315 314 312 312 312 311 311 311
318 319 319 320 321 321 321 320 321 322 321 321 321 322 322 322 322 322 323 323 323 324 323 322 322 323 323 322 322 322 322 322 322 322 322 323 324 323 322 321 321 322 324 323 320 319 319 319 319 320 319 316 315 314 313 312 311 310 310 309 309 309 309 308 308 307 307 307 306 306 306 306 307 308 310 312 314 315 315 314 313 312 311 311 311 311 310
319 319 319 319 319 320 320 321 321 321 320 320 320 321 321 323 323 323 323 323 322 322 323 322 322 323 323 322 322 322 322 322 322 322 322 322 323 322 322 322 322 323 324 322 319 318 319 319 319 319 317 315 314 314 313 311 310 309 309 308 307 307 306 306 306 305 305 305 304 304 305 305 306 306 307 308 310 312 313 313 312 312 310 310 310 310 309
319 319 319 319 319 320 320 320 319 318 319 322 323 321 320 321 322 322 322 323 322 322 322 322 322 322 323 323 322 322 322 322 322 322 322 322 322 322 323 323 323 323 321 320 318 318 319 318 318 317 315 313 311 310 309 309 309 308 308 307 307 307 306 306 305 305 305 304 304 304 305 305 305 306 307 307 308 309 310 311 312 311 310 310 309 308 308
318 318 319 319 320 320 319 319 319 318 319 320 321 320 319 319 321 321 321 321 322 322 321 321 322 322 322 323 323 322 322 322 322 321 321 321 322 323 323 322 321 320 319 318 318 318 317 317 316 315 313 310 307 306 307 309 309 308 308 307 307 307 306 306 305 305 305 305 304 304 304 304 305 305 306 306 306 306 307 309 310 310 310 309 308 307 307
317 318 319 319 320 320 319 319 319 318 318 318 318 319 319 319 320 319 319 320 321 321 321 321 321 321 322 322 323 322 322 322 321 321 321 321 321 322 322 321 321 320 319 318 318 317 317 316 316 313 310 307 306 307 308 309 308 308 307 307 307 307 307 306 306 305 305 304 304 304 303 304 305 305 305 305 305 305 306 307 308 308 308 307 306 306 305
317 317 318 318 319 319 319 319 318 317 316 316 317 318 318 320 320 319 318 319 320 321 321 320 320 319 320 321 321 321 322 322 321 321 321 320 321 321 321 321 320 320 319 319 319 318 317 317 316 314 309 306 306 307 308 308 308 308 307 307 307 307 307 306 305 305 305 304 304 303 303 304 305 305 304 304 304 304 305 305 306 306 306 306 305 305 305
317 316 317 318 319 319 319 319 319 318 317 318 318 317 318 318 319 319 319 318 319 320 321 320 318 318 319 320 320 320 321 322 322 322 321 320 320 320 320 320 319 319 319 319 319 319 318 317 317 315 311 307 305 307 308 308 308 308 308 308 308 307 307 306 305 305 304 304 304 303 303 304 304 304 304 304 304 304 304 304 304 305 305 305 305 305 304
316 316 317 318 319 318 317 316 317 318 318 317 317 316 315 316 317 318 318 317 317 319 320 320 318 317 318 319 319 320 320 320 321 322 321 321 320 320 320 320 319 319 318 318 319 319 318 317 317 315 311 307 306 307 308 308 308 308 308 308 308 308 308 307 306 304 304 304 304 303 303 303 304 303 303 303 303 303 303 303 303 304 304 304 304 304 304
Wind_Speed
16 15 16 15 8 6 7 8 11 13 12 12 13 11 9 10 9 8 8 9 12 12 11 12 13 13 14 13 12 11 9 9 9 8 9 10 11 12 12 11 10 10 11 12 12 14 18 22 23 24 26 28 27 24 23 26 29 33 36 39 41 41 36 30 29 35 39 36 33 32 30 28 26 25 25 22 21 23 25 24 23 21 20 20 18 16 15
14 14 16 16 13 11 10 9 11 13 13 16 16 11 10 11 9 8 10 13 13 11 13 16 14 11 9 7 6 7 8 9 9 10 11 12 13 12 11 10 10 11 12 12 12 12 15 19 22 24 25 25 24 24 26 30 32 36 40 41 41 40 38 38 39 39 36 32 30 30 29 27 26 27 26 23 23 27 29 27 24 23 22 21 19 16 14
10 12 14 15 13 13 13 13 13 11 9 11 11 6 5 5 3 1 8 13 11 8 8 9 6 4 5 5 6 8 10 11 11 11 12 13 12 10 10 10 10 10 10 10 9 10 13 18 22 23 23 23 24 26 29 33 36 39 40 40 40 41 40 39 35 29 25 23 24 27 28 27 26 26 25 26 29 31 30 27 25 24 23 22 20 17 14
8 10 14 14 10 9 11 13 12 9 7 7 6 5 6 7 5 4 6 8 10 7 2 4 4 5 7 9 10 10 9 10 12 13 13 11 10 9 9 9 9 9 9 8 8 8 11 16 19 21 21 21 25 28 32 35 37 39 40 39 37 32 27 23 19 20 22 24 24 25 26 25 23 22 25 31 34 32 30 27 25 24 24 23 21 18 16
7 8 10 10 6 5 8 9 8 8 7 6 5 3 1 3 7 8 6 7 9 6 6 7 5 6 8 9 9 8 8 8 9 11 11 9 9 8 8 8 8 8 7 6 7 9 12 16 19 20 22 24 28 32 34 35 35 36 35 29 22 18 17 18 19 24 31 31 26 25 25 22 21 22 28 36 36 33 30 27 24 24 24 24 22 19 18
7 6 6 7 6 6 7 5 3 6 6 8 10 5 3 2 3 5 5 5 6 8 9 10 9 7 7 6 4 3 5 7 8 8 8 8 7 6 6 7 7 6 6 6 9 13 16 18 19 20 23 27 29 30 31 30 30 30 26 22 21 23 26 28 29 33 36 34 30 30 27 24 24 26 31 36 36 32 29 25 23 23 24 24 23 21 20
4 3 7 7 7 7 5 4 3 4 8 13 13 8 5 6 4 1 1 2 5 8 9 11 11 9 7 7 5 5 6 7 8 7 6 6 6 6 6 6 6 7 6 7 10 14 16 17 18 20 24 27 27 27 28 27 27 27 27 28 31 34 37 39 39 38 36 34 34 33 29 28 29 30 33 36 34 30 27 25 23 24 24 24 23 21 20
3 4 5 7 6 3 3 4 3 2 5 10 11 9 8 9 7 4 1 1 1 3 4 6 10 11 10 7 4 6 7 7 8 9 8 7 8 8 7 7 8 8 8 8 10 11 12 14 18 22 26 28 27 27 27 26 28 31 32 33 35 36 39 40 40 40 37 32 31 32 31 31 32 32 33 34 32 29 26 24 23 23 24 23 22 21 20
3 5 2 2 2 3 4 2 2 1 0 2 7 6 4 6 7 6 1 5 6 5 5 4 6 10 11 7 2 2 4 6 7 6 7 9 9 8 8 8 8 9 10 10 10 10 11 15 20 23 26 28 28 27 27 28 30 33 33 33 34 35 37 37 39 40 37 31 32 34 33 32 32 33 31 31 31 28 24 23 23 23 23 23 21 21 21
2 6 4 2 4 1 3 6 7 4 2 4 3 8 2 6 8 7 3 5 8 8 6 5 7 9 10 7 3 4 3 3 4 3 4 6 6 5 5 6 6 8 10 10 9 9 11 15 18 21 25 28 27 26 26 28 29 30 30 31 33 34 36 37 39 39 38 37 39 38 35 34 34 32 29 29 28 25 22 23 24 25 25 23 22 22 22
1 5 5 3 2 2 5 7 11 8 5 5 0 7 1 7 7 6 3 4 5 7 7 5 6 9 7 5 4 6 4 1 3 4 4 4 3 3 3 5 8 9 9 8 7 8 11 13 15 19 23 25 25 23 24 25 26 27 30 33 32 32 34 36 37 37 37 40 41 39 37 36 33 29 27 26 26 24 22 24 25 25 24 22 21 20 18
0 4 3 2 2 3 6 7 10 11 7 2 5 5 3 6 8 5 5 6 5 4 5 4 6 6 5 6 5 6 3 3 4 3 4 5 5 5 5 6 9 10 10 10 10 11 13 15 16 19 22 24 25 25 26 27 29 32 34 32 26 24 27 32 35 35 37 40 41 38 37 34 28 25 24 24 24 23 22 24 24 23 21 19 19 18 15
1 4 4 1 1 3 5 6 9 9 6 6 7 5 6 4 8 6 6 9 5 5 7 6 5 4 2 4 2 4 5 7 7 6 5 6 7 7 8 10 11 12 10 10 12 14 15 16 18 21 24 26 26 27 28 29 29 29 26 20 20 25 30 33 33 33 35 38 38 36 33 28 23 22 23 24 24 23 22 22 22 21 19 19 19 18 15
2 3 4 2 2 3 4 8 9 5 3 4 4 4 1 4 6 5 8 9 7 7 9 7 6 5 4 4 5 7 8 7 6 6 6 7 8 7 7 9 11 12 10 9 11 13 15 17 20 23 26 26 24 23 24 23 21 19 16 17 24 29 30 29 29 31 33 34 32 29 26 23 21 22 23 24 23 21 21 21 21 20 19 18 17 16 15
1 2 4 3 2 4 6 8 7 4 4 4 5 3 4 5 5 6 8 8 7 8 8 7 8 8 9 9 8 8 8 7 6 6 6 5 5 4 4 5 8 10 11 10 11 13 16 18 21 24 25 23 20 19 18 15 14 15 16 21 26 27 25 24 26 28 30 29 26 22 20 20 22 23 24 23 21 19 19 20 20 19 18 17 15 14 14
1 2 1 2 4 6 8 4 2 2 3 4 5 6 5 5 5 6 7 7 7 7 8 8 9 9 9 9 8 8 7 6 5 5 4 4 3 2 1 2 4 7 9 10 10 12 15 18 20 22 23 21 18 15 12 12 14 16 17 21 26 27 28 28 25 23 24 24 20 18 19 21 23 24 24 24 22 19 19 19 18 18 17 16 14 12 14
2 4 3 2 3 4 6 4 6 6 7 8 8 9 7 6 6 5 6 8 8 8 8 9 8 8 7 7 7 7 5 4 4 4 5 5 5 5 5 5 4 4 6 9 10 11 13 16 19 21 22 20 16 12 11 13 16 17 17 21 25 27 29 27 22 19 20 20 18 19 21 23 25 25 25 24 22 20 19 19 18 17 16 14 13 13 15
2 3 3 3 3 4 5 6 5 7 8 6 7 10 9 6 6 7 8 9 9 9 10 9 8 7 6 6 6 7 7 6 5 4 4 4 4 3 3 4 4 4 7 9 11 11 13 16 19 20 20 17 14 11 11 13 16 16 17 20 23 24 25 23 20 19 20 19 19 20 22 24 25 26 25 23 21 20 19 18 17 16 14 13 14 15 15
4 2 1 1 3 3 3 5 5 7 7 4 5 8 8 6 7 8 8 9 9 9 9 8 6 5 5 5 4 3 5 6 5 4 3 2 2 2 1 3 5 9 11 11 11 12 14 17 19 19 17 14 12 11 10 10 12 15 18 19 19 18 18 19 20 21 22 21 20 20 21 23 23 23 23 22 20 20 19 18 17 15 14 14 14 14 12
4 4 3 1 4 4 4 4 5 6 7 6 5 5 6 7 8 8 7 8 7 7 7 7 4 4 4 2 1 0 1 3 5 5 3 1 1 2 4 7 9 12 13 12 13 14 15 17 19 17 15 14 12 9 7 9 13 17 20 19 16 13 14 17 20 22 23 23 22 22 21 20 20 20 20 20 20 20 19 18 17 16 15 14 13 11 11
5 5 5 6 7 7 6 5 4 3 4 5 5 4 6 8 8 7 7 7 5 6 7 7 5 5 5 3 2 2 1 3 5 5 4 4 5 7 8 10 11 12 12 13 14 14 14 15 16 15 15 14 11 8 9 13 17 19 20 19 18 16 16 19 20 22 23 23 22 21 20 19 19 18 17 17 18 17 16 16 15 14 13 11 10 9 9
5 3 5 7 7 6 3 2 2 2 3 5 5 4 6 8 8 7 8 8 7 7 8 7 6 6 6 6 4 3 4 5 6 6 6 7 8 8 8 9 10 10 11 12 13 13 12 13 15 15 14 14 12 13 16 18 20 21 22 22 21 19 18 19 19 20 21 21 21 21 21 21 19 17 15 15 15 14 13 13 12 11 10 9 8 8 7
4 5 5 5 7 7 5 5 4 3 3 6 8 7 8 9 8 9 10 10 9 9 7 7 8 6 6 6 5 4 4 6 7 8 8 8 8 7 7 9 10 10 10 11 12 12 12 13 15 15 15 17 18 19 20 21 22 22 22 20 18 17 18 19 20 22 23 23 22 22 21 21 20 17 14 12 11 10 10 9 9 9 9 8 8 8 6
3 6 6 5 8 9 6 5 6 4 4 8 10 9 9 9 9 10 11 9 8 8 7 7 9 8 7 6 7 7 6 7 7 6 6 7 7 7 8 9 10 11 12 13 13 13 13 14 15 16 18 21 23 23 23 22 20 18 16 14 14 17 20 22 23 23 24 23 22 21 20 19 18 16 15 13 11 10 8 8 8 8 8 8 8 7 6
3 6 6 7 10 8 6 7 9 8 7 8 9 8 8 9 9 10 10 8 8 8 8 8 10 12 11 8 8 10 8 9 10 8 6 7 7 7 8 9 11 12 13 14 15 14 14 15 17 18 20 24 26 26 23 21 18 17 18 20 20 21 22 22 22 22 22 22 21 21 20 19 18 17 17 17 16 13 11 9 8 8 8 8 7 6 6
6 8 10 12 11 7 7 9 9 9 8 9 8 7 7 9 10 10 10 9 8 8 9 7 8 12 13 11 11 11 10 11 13 11 7 7 8 8 8 9 12 13 12 12 13 15 16 16 16 17 19 21 23 24 21 19 18 20 23 23 22 21 22 22 22 21 22 22 22 21 21 21 21 21 20 20 19 18 16 14 11 10 9 8 7 6 6
5 6 10 13 11 9 8 8 6 6 8 9 9 7 7 9 11 11 10 11 10 11 11 10 9 11 13 14 14 14 13 14 15 13 11 10 11 12 11 9 9 9 9 8 9 10 12 11 12 14 15 16 18 19 18 17 18 20 20 19 19 18 20 21 22 22 22 23 23 23 23 23 23 23 22 20 20 20 19 18 16 13 11 9 8 7 7
9 8 9 10 8 5 5 5 6 7 9 9 9 8 8 9 11 11 10 10 9 8 9 10 10 8 8 11 12 12 12 13 12 12 13 15 15 14 12 9 7 9 10 10 10 9 8 8 10 12 12 13 15 16 17 18 18 18 18 16 16 16 18 20 22 23 23 23 23 23 24 24 24 23 22 20 19 18 17 16 15 14 12 11 10 9 8
8 8 9 8 7 6 6 7 8 9 8 8 9 9 9 10 10 9 8 7 7 6 7 9 10 8 8 10 10 9 8 8 9 11 15 19 18 14 10 7 7 8 10 12 14 14 13 12 13 13 13 15 17 17 18 19 19 18 16 15 15 17 18 20 20 19 19 20 20 21 22 23 23 22 20 17 16 15 14 14 14 14 14 13 12 11 10
5 7 8 7 6 8 9 8 8 7 7 8 8 8 8 8 8 7 7 7 6 6 6 7 8 9 10 11 11 9 8 9 11 14 18 21 20 14 8 6 6 7 8 12 14 12 9 7 5 5 8 14 17 17 18 18 17 16 15 15 15 16 16 16 15 14 14 15 16 18 19 20 20 20 18 15 13 12 12 13 14 15 16 15 14 14 13
8 9 10 9 8 10 9 6 5 6 6 6 7 7 7 7 7 6 6 6 6 6 6 6 7 8 9 9 10 12 14 15 16 18 20 22 22 16 8 8 9 8 8 10 10 10 10 8 6 7 10 13 15 16 17 17 16 15 14 14 13 13 12 12 11 10 11 12 14 15 17 18 18 18 16 13 11 11 11 13 14 16 17 16 16 15 14
9 10 10 8 7 7 7 5 5 6 6 6 6 6 5 4 5 5 5 4 4 4 5 5 6 7 9 11 13 14 15 15 16 17 19 22 22 17 10 10 10 9 9 11 14 15 16 17 19 20 20 19 18 17 17 16 15 14 13 12 13 13 12 11 11 11 11 12 14 14 15 15 16 16 14 13 13 13 14 15 16 17 17 18 17 17 14
10 8 7 7 6 7 7 6 6 6 6 6 5 5 4 4 4 4 3 4 4 4 4 5 7 8 10 12 13 13 13 13 13 14 16 19 21 18 11 8 6 7 10 14 17 20 22 23 24 23 22 21 19 17 16 16 14 13 12 12 13 14 13 12 12 12 11 12 13 13 13 13 15 15 15 14 14 15 16 17 16 17 18 19 18 17 15
8 6 4 5 6 6 6 6 6 6 6 6 5 5 5 5 5 5 5 5 5 5 6 8 10 10 10 11 12 12 11 8 7 8 11 16 18 15 8 3 6 10 13 15 18 19 19 19 18 16 16 19 18 16 16 16 15 13 13 13 14 15 15 13 12 11 11 11 12 12 12 12 13 15 15 16 16 17 18 18 17 17 18 18 17 16 14
6 6 5 5 6 5 5 5 5 5 5 5 5 5 5 5 5 6 7 7 7 9 12 14 13 12 11 11 11 10 9 7 7 8 11 12 11 6 1 2 4 6 9 12 14 13 13 14 13 12 13 15 16 15 17 18 16 14 14 15 15 15 14 13 11 11 11 12 12 12 12 13 14 16 17 17 18 18 19 18 17 17 18 18 16 15 14
7 7 5 5 6 6 5 5 4 4 3 3 3 3 4 5 5 5 7 9 11 13 15 15 14 12 12 11 10 10 10 11 12 11 10 7 3 3 6 6 4 2 1 1 1 1 4 8 11 11 10 11 11 11 13 14 13 13 15 16 16 14 13 12 12 12 12 12 12 13 13 14 15 16 17 17 17 17 17 17 17 17 18 18 17 16 16
8 7 5 4 6 6 5 6 6 5 4 3 2 2 4 5 6 7 8 10 12 13 14 13 12 11 11 13 13 13 13 13 13 12 8 4 5 8 9 10 9 7 3 2 2 3 6 9 8 4 2 3 6 7 6 9 12 15 16 16 15 14 13 13 13 13 13 12 12 13 14 14 14 15 16 17 17 18 18 18 17 17 17 18 18 19 18
9 9 8 7 8 7 7 8 10 9 7 5 5 6 7 8 8 10 11 12 13 13 13 13 11 11 12 14 14 13 14 14 12 9 6 5 7 8 9 9 10 9 6 5 4 5 5 7 9 8 7 9 10 8 5 7 10 12 13 14 14 14 14 14 14 14 13 13 13 13 14 14 14 14 15 16 17 18 18 17 17 16 16 18 20 20 20
8 10 10 10 9 9 9 10 11 11 10 7 6 8 10 11 11 11 11 11 12 13 13 13 12 11 11 11 10 12 13 12 9 5 3 4 6 6 5 5 7 7 5 5 7 10 12 13 11 10 10 12 14 13 9 5 3 5 8 12 13 13 12 12 13 14 14 14 14 14 14 14 14 14 14 15 16 16 16 16 16 16 17 18 20 21 20
5 6 7 8 8 7 8 8 9 10 11 9 7 7 9 10 11 11 10 11 12 12 12 11 10 8 8 7 7 8 10 9 6 2 0 1 2 2 1 1 2 1 3 6 10 12 10 7 7 9 14 16 15 13 8 3 2 5 9 11 12 11 11 11 12 13 15 14 13 13 13 14 14 14 14 14 14 15 15 16 17 18 18 19 20 21 21
5 5 6 7 7 7 7 7 7 9 9 8 8 8 8 9 9 9 9 11 12 12 12 11 10 8 7 7 6 5 6 5 4 4 6 7 7 5 4 4 5 5 7 9 10 9 6 5 8 13 16 14 10 8 7 6 6 8 9 10 9 10 10 11 12 12 13 13 13 13 13 14 15 15 15 15 15 15 15 16 18 19 20 20 21 22 23
6 6 6 5 6 7 8 8 7 8 9 9 10 10 10 9 9 9 10 11 11 11 12 12 11 9 9 8 6 5 6 6 4 4 5 6 5 3 2 3 7 9 9 9 9 8 7 8 9 10 9 9 9 10 12 11 10 9 9 9 9 9 10 10 9 9 9 9 10 11 12 13 14 15 15 16 16 17 17 17 18 20 21 21 22 23 24
6 6 5 4 5 6 7 8 7 7 9 11 11 10 10 10 10 10 10 10 9 9 10 10 10 9 8 7 5 5 7 6 3 2 4 4 2 1 2 5 8 8 6 5 5 6 8 10 10 9 9 11 14 15 15 14 12 12 11 11 10 9 8 8 7 5 4 3 4 6 8 10 12 14 16 17 18 18 19 20 21 22 23 23 24 25 25
7 6 5 6 6 6 6 7 7 6 7 9 9 7 6 7 7 7 7 7 7 8 8 8 9 9 9 8 5 4 5 4 2 2 5 6 5 4 4 3 5 6 5 5 6 7 9 11 12 13 13 14 14 14 13 12 12 12 13 13 13 12 12 11 9 7 5 4 2 2 3 5 9 12 16 19 21 21 22 23 25 25 25 26 27 27 27
8 7 7 7 6 5 5 6 6 5 5 7 7 6 5 6 7 7 7 7 8 9 9 9 9 10 11 10 7 5 4 4 3 2 3 4 4 4 4 3 5 6 6 6 8 9 11 13 14 14 13 13 12 11 11 11 11 11 11 11 11 10 10 9 8 6 5 4 3 4 5 7 8 10 13 17 20 22 24 26 27 28 28 28 28 28 28
8 8 8 7 7 6 6 5 5 5 6 7 7 8 10 11 10 10 9 9 9 10 10 9 9 8 9 9 8 6 5 5 5 3 3 4 6 5 3 3 6 7 7 8 11 13 14 14 14 13 12 12 10 9 9 10 11 11 10 10 9 9 9 8 7 6 4 3 3 4 6 8 9 11 14 16 18 21 24 26 28 29 29 29 29 28 28
8 8 7 7 8 7 7 7 8 7 7 6 5 7 11 13 13 12 12 10 10 9 9 9 8 7 6 5 6 6 6 6 5 5 5 5 4 3 3 5 7 7 8 10 12 13 13 13 13 11 10 9 8 8 10 11 11 10 9 8 7 6 6 5 4 3 2 0 2 3 5 6 8 10 12 14 15 16 19 22 26 28 28 28 28 28 27
8 7 6 6 6 6 7 9 9 6 5 4 5 7 10 12 13 13 12 11 10 10 9 9 8 6 4 3 3 3 4 4 3 4 6 6 1 4 7 8 7 7 8 10 10 11 11 12 11 9 8 7 7 9 11 11 10 9 8 6 5 4 3 3 2 2 3 3 3 4 5 7 8 9 10 12 13 14 15 17 20 22 24 26 27 27 27
9 6 3 2 3 4 6 7 7 5 5 6 8 9 10 11 12 12 12 11 11 11 10 9 9 7 5 4 3 3 2 2 2 3 4 3 1 5 8 8 7 7 8 9 9 9 11 11 10 9 8 8 8 9 10 10 10 9 8 7 6 6 5 5 5 6 6 6 5 5 6 8 9 9 8 9 10 10 12 14 16 18 21 24 26 26 25
10 7 2 4 5 4 5 6 7 7 8 9 10 12 12 11 10 11 12 12 12 13 12 11 10 8 5 4 4 3 3 2 2 2 2 1 3 6 8 9 9 9 9 9 9 10 11 11 11 10 10 10 11 12 12 11 10 10 8 8 7 7 6 6 7 7 7 6 7 7 8 10 10 8 7 6 6 6 8 10 12 14 18 22 24 23 22
10 8 5 2 4 4 4 7 8 10 11 12 13 13 12 10 10 12 12 11 11 12 13 11 9 8 6 4 5 5 4 4 4 3 3 4 5 6 7 9 10 10 10 10 10 11 12 12 12 13 14 14 14 15 15 14 12 11 11 10 9 8 8 8 8 9 9 9 10 11 11 12 12 10 8 8 8 8 8 9 10 13 16 19 20 21 21
7 6 4 1 3 5 6 8 9 10 12 14 14 14 13 12 12 12 12 11 11 12 12 11 9 9 8 7 7 7 6 6 6 6 6 6 7 8 9 10 11 11 12 12 12 12 13 13 14 15 16 17 17 17 17 16 15 14 13 12 12 11 11 10 10 9 9 10 12 13 14 14 14 13 12 10 11 11 11 11 12 14 16 18 20 21 21
Wind_Direction
222 217 225 228 213 211 221 212 211 208 194 182 187 193 180 155 164 214 226 188 186 200 202 204 205 200 200 202 196 189 182 177 179 180 182 189 197 203 203 202 202 201 205 207 205 206 207 207 206 205 206 208 204 198 191 186 184 184 185 187 189 190 187 185 198 205 203 206 213 215 215 216 218 221 222 222 220 223 229 233 235 241 244 239 233 232 239
228 220 228 233 228 234 238 230 224 215 198 191 195 196 176 169 190 203 178 181 199 202 198 204 205 196 192 183 163 158 163 170 176 176 183 196 202 202 201 201 203 206 210 211 208 207 206 205 203 203 205 204 196 189 185 184 185 187 189 189 188 186 185 191 201 203 201 206 211 211 213 217 220 221 222 220 220 224 229 232 238 244 242 232 228 232 240
237 223 225 230 227 230 237 240 237 220 201 198 195 179 161 171 218 212 161 179 209 226 209 197 178 126 109 124 151 169 178 178 176 181 192 200 201 199 201 204 206 212 216 215 213 210 208 208 205 203 203 197 190 186 184 186 189 190 190 190 189 188 189 194 198 192 193 212 219 213 213 219 223 226 228 226 224 227 230 232 239 243 237 229 230 237 244
234 225 222 226 221 223 242 255 246 210 175 187 190 162 162 172 165 118 128 178 217 233 154 107 106 120 142 170 183 186 188 183 178 186 193 195 196 197 201 207 210 217 220 215 214 215 214 211 208 205 199 188 184 187 188 191 192 191 191 191 191 189 185 183 179 174 191 218 228 220 216 220 222 227 237 238 234 233 233 234 238 240 234 230 235 243 250
236 232 211 203 185 201 245 257 231 193 173 158 131 86 58 144 141 141 161 208 217 192 142 137 158 169 174 191 197 187 185 183 183 189 188 186 192 194 196 207 213 216 216 209 208 215 217 214 211 206 196 187 189 193 194 194 191 189 190 187 178 169 163 165 171 181 197 212 220 219 217 217 217 220 234 244 243 238 236 236 238 239 234 233 239 246 249
228 228 166 147 157 199 235 260 205 173 160 127 110 88 4 14 128 168 203 226 187 155 154 161 169 179 182 188 196 176 168 172 177 185 185 180 182 189 198 207 210 208 202 198 206 213 216 216 212 205 198 195 197 197 195 193 188 183 178 169 161 160 166 178 187 191 198 206 208 211 212 213 217 223 233 244 246 241 239 238 238 237 233 235 242 247 248
201 178 129 149 198 219 246 312 357 112 125 116 104 86 44 20 360 322 329 278 194 172 168 161 155 157 159 156 152 145 156 166 161 163 179 183 178 188 200 204 208 212 202 196 204 210 213 211 204 199 198 197 197 196 194 189 181 175 172 172 175 175 177 186 192 193 198 204 202 202 205 209 217 227 234 241 244 243 241 238 237 236 235 239 245 248 252
159 141 148 181 208 261 323 343 355 54 105 105 87 54 18 11 3 348 38 56 174 154 145 147 147 145 137 132 147 160 165 166 153 152 172 185 185 190 193 193 200 205 202 205 214 214 208 200 196 196 195 194 193 191 189 184 178 178 179 180 182 182 182 186 191 192 198 202 198 199 204 210 218 229 236 241 244 242 241 240 238 238 238 242 248 252 257
149 130 144 176 73 4 335 320 294 289 333 120 105 81 351 345 12 360 11 111 96 84 86 102 128 127 115 106 120 208 189 177 166 163 174 177 180 187 187 188 198 205 211 220 227 222 206 197 197 196 193 191 188 183 182 182 182 183 184 185 186 186 181 182 189 193 193 192 193 200 208 214 221 231 239 243 242 239 239 240 238 237 239 244 250 255 260
110 106 109 72 61 56 253 273 283 293 320 272 142 103 6 322 5 3 349 114 112 110 111 122 128 114 102 113 175 265 273 190 181 204 202 181 176 182 186 194 208 216 219 222 224 216 204 199 199 195 189 186 181 177 180 183 183 186 189 190 190 186 179 180 190 194 190 189 193 200 210 218 223 231 240 244 241 239 240 240 238 238 241 245 251 256 259
67 102 121 132 118 209 246 276 295 313 326 289 89 92 18 302 345 6 19 63 86 112 124 131 117 105 110 147 208 275 299 209 169 181 178 154 131 139 179 200 203 198 193 189 187 189 192 194 194 190 185 179 174 174 180 182 184 191 196 197 193 183 176 181 194 197 192 191 196 200 209 219 225 231 240 245 243 241 241 240 240 240 242 245 249 251 254
40 99 97 114 141 238 264 281 298 306 311 348 87 108 234 296 336 358 70 60 30 64 86 69 69 87 140 185 239 292 335 54 63 105 132 128 124 129 139 158 169 165 158 156 159 171 185 190 189 185 179 173 173 178 181 183 191 199 202 198 185 171 173 186 198 200 194 193 198 203 211 219 227 233 242 245 243 241 241 239 239 240 238 238 239 238 242
19 89 97 91 213 244 267 284 292 299 328 55 97 169 230 323 348 351 75 83 64 57 62 60 61 63 164 193 257 342 43 61 46 43 72 95 103 116 130 140 146 146 147 157 166 176 188 188 185 183 178 175 180 183 184 189 199 203 201 186 167 169 183 193 201 203 197 195 200 206 212 221 229 237 244 245 241 239 238 237 236 235 234 233 230 230 240
20 84 101 69 279 259 297 308 302 312 55 91 141 188 223 22 7 8 60 75 75 69 68 70 72 52 36 55 51 39 48 55 45 35 43 62 70 84 115 137 144 141 138 149 162 174 186 187 186 185 182 181 185 186 187 196 200 195 186 175 173 179 186 194 203 206 200 198 204 208 213 221 228 237 243 241 236 233 232 230 230 229 228 228 228 233 249
60 64 75 90 204 264 322 330 326 5 83 154 175 118 58 33 20 36 58 59 52 62 70 66 61 50 35 32 39 47 53 57 54 47 44 51 63 87 124 145 155 149 142 149 163 175 183 187 189 188 185 184 186 186 188 193 186 177 178 176 173 175 181 192 206 210 205 203 207 211 216 225 233 237 238 234 229 228 226 224 222 220 220 225 234 249 258
95 103 122 178 210 277 324 1 79 55 75 129 129 99 77 55 43 46 53 47 41 61 75 65 52 48 35 19 14 23 38 50 55 52 44 39 35 13 19 74 134 147 148 155 167 176 182 186 189 189 188 187 184 180 178 176 174 175 175 171 170 175 183 191 204 216 215 212 217 224 230 238 239 236 232 228 227 228 225 220 217 218 224 232 239 247 250
159 151 176 230 244 303 341 40 104 108 99 103 108 106 97 79 71 71 64 51 40 49 69 72 62 54 42 19 0 351 357 25 51 45 24 17 9 355 3 33 71 132 156 160 162 169 181 189 190 191 192 188 176 168 168 173 178 181 176 175 180 187 189 191 204 224 227 223 229 239 243 244 239 231 226 224 222 220 218 216 218 223 228 235 239 239 244
131 83 55 19 22 19 18 39 76 95 98 104 105 99 94 88 87 85 77 66 51 43 51 58 56 53 52 42 17 345 333 346 9 17 11 9 9 13 38 69 94 130 149 156 161 169 183 193 193 193 194 185 168 164 174 179 183 187 185 186 191 193 192 195 210 227 229 227 232 241 244 240 233 227 224 222 217 214 214 214 217 223 228 232 237 240 245
130 84 15 15 42 24 20 43 62 72 73 77 91 95 105 114 98 89 87 83 75 62 56 55 47 38 47 56 41 343 322 328 327 319 322 346 358 14 81 126 149 154 155 160 171 179 188 196 196 193 189 181 170 171 181 189 193 197 196 196 196 193 192 199 213 224 228 230 233 236 234 227 222 222 223 224 220 217 216 216 218 226 232 231 229 232 240
115 130 178 116 63 41 16 38 60 69 72 70 71 90 114 112 96 93 94 89 89 86 82 85 76 36 30 65 146 286 331 313 302 296 292 297 283 223 202 190 179 171 169 173 183 190 195 197 195 191 187 185 182 176 183 196 195 193 193 191 186 186 194 204 214 223 229 231 229 223 216 211 211 214 217 219 219 218 219 222 226 231 231 227 226 233 240
85 105 135 121 84 57 32 27 36 48 81 90 79 79 90 88 86 91 89 84 89 89 86 93 90 54 27 360 320 320 291 254 259 264 258 236 218 209 204 199 193 187 185 187 191 199 203 195 188 186 189 190 187 181 187 190 183 179 180 178 174 180 198 209 217 223 225 224 218 208 201 197 198 200 201 205 210 214 220 226 228 230 231 229 231 234 230
133 153 159 147 123 98 94 116 116 165 173 130 107 91 77 74 75 81 81 76 68 60 56 59 63 49 24 5 340 273 240 232 230 227 223 215 210 204 197 198 201 199 196 197 199 202 202 192 183 185 189 189 187 187 188 183 172 165 168 170 169 178 196 211 218 218 214 211 206 200 195 191 187 185 189 197 204 212 219 221 220 222 223 220 215 213 210
149 149 146 138 120 115 131 138 128 151 151 102 88 77 71 71 67 68 73 69 59 54 49 47 51 40 11 2 350 308 275 258 243 229 216 209 208 202 191 188 194 196 195 199 201 199 195 190 186 187 187 184 183 182 179 175 168 161 160 163 166 176 195 211 216 210 204 201 197 193 190 188 187 183 181 184 191 197 203 205 206 208 206 201 199 204 213
63 100 121 124 107 105 111 100 84 72 69 77 75 66 65 68 65 65 69 66 62 63 55 44 45 38 20 10 3 350 326 301 292 278 252 236 223 210 199 193 194 193 193 199 204 201 195 192 193 192 187 183 180 176 169 167 165 158 157 168 180 188 196 205 206 200 196 193 191 187 184 185 187 185 179 170 163 166 175 184 189 193 194 194 195 197 204
93 98 103 97 96 100 100 80 64 46 45 64 69 63 62 67 66 64 64 61 58 59 51 39 33 28 24 18 11 7 354 334 333 327 295 275 259 226 210 207 206 205 204 207 207 203 198 198 198 194 187 182 181 177 171 168 172 174 179 191 200 199 195 194 193 192 191 190 188 188 189 189 190 190 188 179 168 159 159 165 173 181 182 181 182 181 185
114 107 89 76 68 65 70 65 49 34 40 58 64 55 51 60 66 65 64 62 57 55 54 44 25 21 23 19 10 8 5 358 358 358 341 311 293 266 244 234 227 222 216 210 206 203 203 204 199 192 185 181 180 179 175 176 184 188 191 198 206 204 195 190 188 190 192 193 193 194 196 196 195 194 194 191 182 171 163 160 161 165 166 166 170 174 175
69 78 82 76 57 38 50 67 61 44 45 51 57 53 45 55 63 60 55 53 53 55 56 46 28 23 22 16 9 6 4 5 6 5 358 336 309 293 291 284 256 232 219 214 216 219 219 211 199 191 187 184 184 186 186 186 189 191 194 202 207 202 196 194 195 196 197 198 198 198 197 197 197 196 195 193 188 181 176 172 169 164 159 159 164 168 168
54 50 71 90 97 85 84 91 76 58 48 44 48 47 42 47 51 47 40 35 32 40 45 36 30 29 20 11 10 6 360 1 1 356 349 341 326 311 306 298 262 229 216 214 220 229 233 224 209 200 195 190 191 194 194 190 186 186 188 193 194 191 192 197 198 197 198 199 199 200 199 198 198 197 194 191 188 186 183 179 173 167 163 162 163 166 169
62 63 71 91 118 126 100 70 53 48 43 40 43 41 39 42 41 35 32 26 17 18 18 11 12 17 14 11 12 8 357 354 350 341 337 336 332 322 305 278 241 218 212 217 221 223 224 223 220 211 196 185 182 183 183 180 178 177 177 179 181 183 186 189 189 189 192 196 199 202 201 199 196 194 192 189 186 182 178 175 173 170 167 167 170 175 178
67 75 78 78 79 78 69 57 49 46 38 38 44 42 40 44 41 26 16 14 15 14 6 356 0 8 8 8 10 8 360 351 344 340 340 339 337 326 292 242 201 188 203 218 223 218 207 203 215 216 195 183 177 173 171 168 166 167 170 175 180 180 178 177 179 182 188 194 199 200 199 197 195 193 190 186 181 177 176 175 174 174 173 174 181 188 189
71 65 65 61 58 62 62 54 50 44 33 37 45 37 31 40 39 19 7 8 9 5 359 358 5 6 0 1 8 11 8 0 353 349 348 346 342 330 287 230 211 209 209 204 197 183 163 152 169 202 203 189 178 172 167 162 161 165 170 172 171 169 168 172 177 182 189 195 196 194 192 191 191 189 185 181 177 177 178 174 175 178 180 182 190 197 196
71 58 52 48 48 53 51 42 38 29 17 21 32 23 14 26 24 7 1 6 359 352 358 3 2 354 348 351 1 8 7 360 353 349 347 346 341 330 296 252 238 228 204 185 180 177 174 177 187 193 190 181 174 174 174 170 168 169 171 171 167 166 172 180 182 182 188 192 192 191 188 187 187 186 185 185 185 184 181 179 180 185 188 193 200 202 199
65 52 35 28 32 38 32 23 22 17 4 1 5 353 342 359 12 6 3 3 359 2 6 353 340 341 346 349 354 359 358 353 350 348 343 339 335 325 303 272 240 202 181 177 179 180 179 179 178 178 177 176 177 179 181 181 179 177 178 180 178 176 180 184 181 178 183 189 193 195 193 190 190 191 191 192 193 192 189 187 188 191 196 203 208 206 203
73 80 63 43 44 46 37 24 17 12 3 354 349 348 353 359 359 357 1 5 2 353 342 330 327 334 343 344 344 347 348 349 347 333 324 327 329 326 312 258 187 170 165 168 173 176 178 175 173 177 185 186 184 186 189 190 190 186 186 187 185 181 181 181 178 180 188 193 195 198 196 193 195 198 199 200 200 197 193 191 193 195 199 204 207 207 208
66 73 63 50 47 50 52 43 29 18 10 359 349 348 353 352 347 350 355 351 337 329 328 326 326 331 338 338 338 340 339 330 315 306 309 316 321 319 320 141 155 162 161 163 166 168 172 174 179 193 200 193 189 196 201 197 191 187 187 188 185 181 179 179 182 190 196 197 196 198 200 200 201 202 203 204 201 195 191 191 193 197 199 202 204 203 204
46 47 41 34 28 27 33 32 19 7 11 11 356 346 343 335 331 336 336 330 327 328 328 328 329 333 336 334 329 326 320 312 304 302 305 307 280 191 156 143 138 129 131 174 176 259 240 222 216 217 214 200 189 189 193 191 187 183 181 179 177 176 178 183 189 195 199 200 202 204 205 205 203 203 204 203 199 194 193 194 196 200 203 203 201 198 197
34 36 31 18 13 12 14 12 8 7 8 9 7 357 339 326 325 333 333 330 331 333 333 332 332 328 323 320 317 314 311 309 303 296 289 256 190 167 157 155 154 150 156 235 268 294 285 269 254 238 201 115 108 122 157 182 182 176 174 173 173 175 178 182 187 192 194 197 201 202 202 201 200 202 204 204 202 199 198 197 199 202 205 204 201 198 196
22 23 19 10 8 10 10 9 12 14 10 358 348 349 348 344 342 341 338 337 338 339 337 334 328 320 318 319 318 316 316 315 307 293 268 213 182 170 165 169 175 178 186 206 199 172 163 168 164 147 112 87 86 100 147 182 174 168 171 174 174 174 176 178 182 188 192 192 194 196 198 199 196 196 200 204 204 204 203 201 203 207 208 205 203 201 198
16 14 11 7 7 8 6 7 8 8 6 0 352 349 353 354 351 346 341 342 345 345 339 332 329 329 329 326 321 322 328 328 319 292 230 191 187 189 197 213 219 216 214 208 190 168 148 140 142 136 118 112 116 123 131 148 165 182 191 188 179 174 175 178 182 188 191 190 189 193 198 200 199 198 200 202 203 203 205 206 210 215 216 211 207 204 203
9 2 0 1 0 359 358 359 358 358 2 7 3 353 351 350 348 347 346 346 347 348 343 336 331 329 327 323 324 333 340 341 336 323 236 127 117 107 64 348 306 243 183 176 178 172 160 154 159 147 133 130 135 138 139 146 175 185 192 194 186 178 180 185 189 193 194 193 194 199 205 209 210 210 210 208 206 206 207 209 212 217 218 215 211 208 208
358 355 357 358 354 350 350 349 345 350 0 7 2 357 357 356 353 352 350 347 349 355 357 353 347 344 344 344 347 358 8 15 32 56 55 46 46 52 50 42 53 87 122 138 142 135 127 143 160 150 139 137 145 153 156 160 163 167 179 189 189 186 188 191 192 195 198 199 203 209 212 215 218 219 220 220 220 218 217 216 216 217 218 216 213 211 211
351 352 355 353 347 346 348 347 344 346 352 356 357 357 359 0 360 359 357 356 356 359 4 8 7 4 2 360 1 15 29 35 48 61 45 32 35 57 110 128 119 117 123 132 133 129 137 159 172 168 155 147 148 148 148 151 154 158 166 177 186 193 196 193 192 199 207 212 218 224 228 230 231 230 228 227 227 227 225 222 220 217 216 214 212 212 214
338 342 341 331 330 339 345 345 342 339 341 346 352 353 352 354 358 359 360 2 360 353 355 4 8 5 5 9 17 32 37 33 28 15 2 347 330 279 210 186 169 160 158 160 160 171 185 189 187 177 154 139 138 141 143 141 136 132 134 140 150 156 156 153 155 163 174 190 217 237 246 250 251 248 243 239 236 233 230 226 222 218 214 212 210 212 215
331 338 333 322 323 334 341 339 335 331 329 336 344 347 343 347 355 355 353 356 356 349 347 354 357 358 1 4 4 13 20 13 353 341 340 327 309 300 295 254 209 199 212 212 196 191 188 176 160 147 140 138 140 143 142 138 134 131 129 127 127 126 125 123 121 119 118 110 81 16 318 291 277 266 257 251 247 242 235 228 223 219 215 212 212 213 216
326 334 335 330 328 335 344 342 336 327 326 337 350 358 355 354 359 360 355 350 349 349 350 352 353 357 0 358 350 344 350 349 332 304 302 306 306 313 312 261 212 210 216 203 180 167 160 155 150 148 149 151 151 147 143 140 140 138 135 132 130 129 126 123 118 112 102 86 53 20 356 334 313 291 273 261 253 248 242 233 225 221 219 217 216 216 217
319 324 332 334 329 329 339 348 349 352 1 6 5 2 359 359 358 359 358 354 348 347 348 346 346 351 359 2 1 358 351 347 344 330 297 284 289 301 300 219 202 209 206 184 165 157 156 159 162 161 160 159 158 156 154 151 148 145 141 137 134 131 128 125 123 118 108 90 56 21 1 345 326 305 288 274 262 254 247 238 230 225 222 220 219 218 218
312 310 315 323 323 325 335 344 348 359 15 18 352 341 351 355 352 348 349 348 344 340 337 334 334 341 349 358 7 9 359 348 343 343 340 328 306 271 216 195 196 197 188 177 171 168 167 170 171 171 172 174 176 173 168 162 157 154 150 144 139 138 138 135 135 137 135 70 344 338 335 330 321 309 296 285 277 268 258 245 235 229 225 222 220 217 212
318 305 297 304 311 314 322 330 334 342 358 350 328 331 345 349 345 344 347 346 339 335 333 328 326 329 331 326 337 356 360 354 345 345 351 353 336 195 193 194 193 187 181 181 183 184 183 183 183 183 186 189 184 176 174 173 171 168 165 163 164 168 173 182 202 221 243 261 272 287 298 298 297 296 290 283 279 276 267 254 241 233 227 221 215 209 204
337 329 297 228 230 268 294 308 314 317 327 334 333 333 337 336 334 337 343 342 333 330 331 332 329 327 323 310 298 302 322 333 329 332 343 345 245 202 203 204 203 199 198 201 202 201 198 196 195 196 202 204 197 188 185 186 186 186 189 196 203 208 216 229 237 243 247 248 248 264 281 279 274 272 272 269 270 273 269 259 248 238 225 213 204 200 200
342 341 312 186 186 216 254 272 284 299 316 327 330 331 332 328 319 316 323 328 323 319 322 329 334 331 320 306 293 283 272 269 278 287 293 260 225 218 219 220 220 220 220 219 216 212 210 209 209 211 215 213 206 200 199 202 204 206 209 213 213 215 223 234 237 239 240 238 239 250 260 258 251 247 249 256 267 279 277 264 250 233 216 204 200 200 203
332 325 310 241 167 182 231 260 277 294 306 313 317 321 322 313 296 291 298 305 305 303 307 317 327 329 324 314 301 288 271 257 256 255 240 228 229 232 232 231 230 228 228 227 224 219 220 221 221 220 221 219 213 209 209 211 214 217 221 225 227 233 241 243 238 235 236 238 239 242 244 243 240 240 247 258 266 271 269 260 246 231 218 211 210 210 210
326 314 315 314 164 192 233 259 275 291 302 305 306 309 310 302 288 283 287 291 288 285 287 293 302 308 309 305 298 292 282 263 251 244 237 231 233 237 239 240 239 237 235 235 233 231 231 231 228 224 222 222 220 216 215 215 218 222 227 231 234 240 244 242 233 227 231 238 240 240 239 239 239 242 248 255 257 256 256 255 248 239 231 226 222 218 214